TimeCDT,TemperatureF,Dew PointF,Humidity,Sea Level PressureIn,VisibilityMPH,Wind Direction,Wind SpeedMPH,Gust SpeedMPH,PrecipitationIn,Events,Conditions,WindDirDegrees,DateUTC
12:15 AM,53.6,48.2,82,30.03,10.0,SSE,6.9,-,N/A,,Clear,160,2012-10-04 05:15:00
12:35 AM,53.6,48.2,82,30.03,10.0,SSE,8.1,-,N/A,,Clear,150,2012-10-04 05:35:00
12:55 AM,53.6,48.2,82,30.03,10.0,SSE,6.9,-,N/A,,Clear,150,2012-10-04 05:55:00
1:15 AM,53.6,48.2,82,30.03,10.0,SSE,6.9,-,N/A,,Clear,150,2012-10-04 06:15:00
1:35 AM,53.6,48.2,82,30.04,10.0,SSE,4.6,-,N/A,,Clear,150,2012-10-04 06:35:00
1:55 AM,51.8,46.4,82,30.03,10.0,SSE,5.8,-,N/A,,Clear,160,2012-10-04 06:55:00
2:15 AM,53.6,48.2,82,30.03,10.0,SSE,5.8,-,N/A,,Clear,160,2012-10-04 07:15:00
2:35 AM,53.6,48.2,82,30.03,10.0,South,5.8,-,N/A,,Clear,170,2012-10-04 07:35:00
2:55 AM,53.6,48.2,82,30.03,10.0,South,5.8,-,N/A,,Clear,170,2012-10-04 07:55:00
3:15 AM,51.8,46.4,82,30.03,10.0,South,4.6,-,N/A,,Clear,170,2012-10-04 08:15:00
3:35 AM,50.0,46.4,87,30.03,10.0,South,4.6,-,N/A,,Clear,170,2012-10-04 08:35:00
3:55 AM,50.0,46.4,87,30.03,10.0,South,4.6,-,N/A,,Clear,170,2012-10-04 08:55:00
4:15 AM,51.8,46.4,82,30.02,10.0,South,5.8,-,N/A,,Clear,170,2012-10-04 09:15:00
4:35 AM,51.8,48.2,88,30.02,10.0,South,5.8,-,N/A,,Clear,170,2012-10-04 09:35:00
4:55 AM,51.8,48.2,88,30.03,10.0,South,5.8,-,N/A,,Clear,180,2012-10-04 09:55:00
5:15 AM,53.6,48.2,82,30.03,10.0,South,6.9,-,N/A,,Clear,170,2012-10-04 10:15:00
5:35 AM,51.8,46.4,82,30.02,10.0,South,5.8,-,N/A,,Clear,180,2012-10-04 10:35:00
5:55 AM,51.8,46.4,82,30.02,10.0,South,6.9,-,N/A,,Clear,180,2012-10-04 10:55:00
6:15 AM,51.8,48.2,88,30.02,10.0,South,4.6,-,N/A,,Clear,170,2012-10-04 11:15:00
6:35 AM,53.6,48.2,82,30.02,10.0,South,5.8,-,N/A,,Clear,170,2012-10-04 11:35:00
6:55 AM,51.8,48.2,88,30.02,10.0,South,6.9,-,N/A,,Clear,170,2012-10-04 11:55:00
7:15 AM,53.6,48.2,82,30.02,10.0,South,6.9,-,N/A,,Clear,170,2012-10-04 12:15:00
7:35 AM,53.6,50.0,88,30.01,10.0,South,6.9,-,N/A,,Clear,190,2012-10-04 12:35:00
7:55 AM,55.4,51.8,88,30.02,10.0,SSW,8.1,-,N/A,,Clear,210,2012-10-04 12:55:00
8:15 AM,57.2,51.8,82,30.02,10.0,SSW,10.4,-,N/A,,Clear,210,2012-10-04 13:15:00
8:35 AM,60.8,53.6,77,30.02,10.0,SW,10.4,-,N/A,,Clear,220,2012-10-04 13:35:00
8:55 AM,62.6,53.6,72,30.03,10.0,WSW,16.1,-,N/A,,Clear,240,2012-10-04 13:55:00
9:15 AM,64.4,51.8,64,30.04,10.0,West,18.4,25.3,N/A,,Clear,260,2012-10-04 14:15:00
9:35 AM,64.4,50.0,59,30.03,10.0,WSW,12.7,24.2,N/A,,Clear,250,2012-10-04 14:35:00
9:55 AM,64.4,48.2,56,30.03,10.0,West,15.0,-,N/A,,Clear,280,2012-10-04 14:55:00
10:15 AM,64.4,50.0,59,30.03,10.0,West,12.7,-,N/A,,Clear,270,2012-10-04 15:15:00
10:35 AM,64.4,48.2,56,30.03,10.0,West,12.7,16.1,N/A,,Clear,270,2012-10-04 15:35:00
10:55 AM,64.4,48.2,56,30.03,10.0,WSW,11.5,18.4,N/A,,Clear,250,2012-10-04 15:55:00
11:15 AM,64.4,48.2,56,30.05,10.0,West,19.6,23.0,N/A,,Clear,270,2012-10-04 16:15:00
11:35 AM,64.4,42.8,45,30.07,10.0,West,19.6,26.5,N/A,,Clear,270,2012-10-04 16:35:00
11:55 AM,57.2,39.2,51,30.09,10.0,West,18.4,27.6,N/A,Thunderstorm,Clear,280,2012-10-04 16:55:00
12:15 PM,53.6,44.6,72,30.10,9.0,WNW,17.3,21.9,N/A,,Mostly Cloudy,290,2012-10-04 17:15:00
12:35 PM,51.8,44.6,76,30.09,10.0,WNW,9.2,-,N/A,,Scattered Clouds,290,2012-10-04 17:35:00
12:55 PM,51.8,44.6,76,30.09,10.0,West,9.2,-,N/A,,Clear,280,2012-10-04 17:55:00
1:35 PM,53.6,42.8,67,30.11,10.0,West,12.7,-,N/A,,Partly Cloudy,280,2012-10-04 18:35:00
1:55 PM,53.6,42.8,67,30.11,10.0,West,13.8,-,N/A,,Partly Cloudy,260,2012-10-04 18:55:00
2:15 PM,53.6,44.6,72,30.13,10.0,West,16.1,19.6,N/A,,Clear,260,2012-10-04 19:15:00
2:35 PM,55.4,44.6,67,30.12,10.0,WSW,15.0,19.6,N/A,,Partly Cloudy,250,2012-10-04 19:35:00
2:55 PM,55.4,42.8,63,30.12,10.0,West,13.8,19.6,N/A,,Scattered Clouds,270,2012-10-04 19:55:00
3:15 PM,55.4,42.8,63,30.12,10.0,West,19.6,-,N/A,,Partly Cloudy,270,2012-10-04 20:15:00
3:35 PM,55.4,41.0,58,30.12,10.0,West,20.7,-,N/A,,Clear,270,2012-10-04 20:35:00
3:55 PM,55.4,39.2,54,30.13,10.0,West,13.8,23.0,N/A,,Clear,280,2012-10-04 20:55:00
4:15 PM,55.4,37.4,51,30.12,10.0,West,16.1,-,N/A,,Clear,280,2012-10-04 21:15:00
4:35 PM,53.6,39.2,58,30.11,10.0,WNW,10.4,-,N/A,,Clear,300,2012-10-04 21:35:00
4:55 PM,53.6,39.2,58,30.12,10.0,West,12.7,-,N/A,,Mostly Cloudy,270,2012-10-04 21:55:00
5:15 PM,53.6,39.2,58,30.13,10.0,West,12.7,-,N/A,,Overcast,260,2012-10-04 22:15:00
5:35 PM,53.6,39.2,58,30.14,10.0,WSW,12.7,-,N/A,,Overcast,240,2012-10-04 22:35:00
5:55 PM,53.6,39.2,58,30.14,10.0,WSW,9.2,-,N/A,,Overcast,250,2012-10-04 22:55:00
6:15 PM,53.6,39.2,58,30.14,10.0,WSW,10.4,-,N/A,,Scattered Clouds,250,2012-10-04 23:15:00
6:35 PM,53.6,37.4,54,30.14,10.0,West,12.7,-,N/A,,Clear,260,2012-10-04 23:35:00
6:55 PM,53.6,37.4,54,30.14,10.0,West,8.1,-,N/A,,Partly Cloudy,270,2012-10-04 23:55:00
7:15 PM,51.8,33.8,50,30.15,10.0,West,8.1,-,N/A,,Partly Cloudy,270,2012-10-05 00:15:00
7:35 PM,48.2,33.8,58,30.15,10.0,West,5.8,-,N/A,,Clear,260,2012-10-05 00:35:00
7:55 PM,46.4,33.8,62,30.16,10.0,West,6.9,-,N/A,,Clear,260,2012-10-05 00:55:00
8:15 PM,44.6,33.8,66,30.17,10.0,West,6.9,-,N/A,,Clear,280,2012-10-05 01:15:00
8:35 PM,44.6,33.8,66,30.17,10.0,West,6.9,-,N/A,,Clear,280,2012-10-05 01:35:00
8:55 PM,42.8,33.8,70,30.17,10.0,West,9.2,-,N/A,,Clear,280,2012-10-05 01:55:00
9:15 PM,42.8,33.8,70,30.17,10.0,West,5.8,-,N/A,,Clear,280,2012-10-05 02:15:00
9:35 PM,41.0,33.8,76,30.18,10.0,WNW,8.1,-,N/A,,Clear,290,2012-10-05 02:35:00
9:55 PM,41.0,33.8,76,30.19,10.0,WNW,8.1,-,N/A,,Clear,290,2012-10-05 02:55:00
10:15 PM,41.0,32.0,70,30.20,10.0,WNW,9.2,-,N/A,,Clear,290,2012-10-05 03:15:00
10:35 PM,39.2,32.0,75,30.19,10.0,WNW,6.9,-,N/A,,Clear,300,2012-10-05 03:35:00
10:55 PM,39.2,30.2,70,30.20,10.0,WNW,4.6,-,N/A,,Clear,290,2012-10-05 03:55:00
11:15 PM,37.4,30.2,75,30.20,10.0,West,5.8,-,N/A,,Clear,270,2012-10-05 04:15:00
11:35 PM,37.4,30.2,75,30.19,10.0,WNW,6.9,-,N/A,,Clear,290,2012-10-05 04:35:00
11:55 PM,39.2,30.2,70,30.18,10.0,NW,8.1,-,N/A,,Clear,310,2012-10-05 04:55:00